Location: Newark
(70.3000°N, 13.1000°W)
Time: 23:39:16
(UTC+00:00)

Envisat - Visible Passes

Search period start: 20 January 2020 00:00
Search period end: 30 January 2020 00:00
Orbit: 764 x 766 km, 98.1° (Epoch: 20 January)

Date Brightness Start Highest point End Pass type
(mag) Time Alt. Az. Time Alt. Az. Time Alt. Az.
20 Jan 5.9 05:53:26 10° NNE 05:56:49 17° ENE 06:00:10 10° ESE visible
20 Jan 4.2 07:32:14 10° NNE 07:37:08 45° E 07:42:01 10° S visible
20 Jan 3.0 09:11:26 10° NNE 09:16:31 72° WNW 09:21:36 10° SW visible
20 Jan 2.9 17:22:49 10° SE 17:27:56 80° ENE 17:33:02 10° NNW visible
20 Jan 4.4 19:02:37 10° SSW 19:07:24 40° W 19:12:14 10° NNW visible
20 Jan 6.0 20:44:51 10° WSW 20:47:51 16° WNW 20:50:53 10° NW visible
21 Jan 6.2 05:17:19 10° NE 05:19:18 12° ENE 05:21:16 10° E visible
21 Jan 4.9 06:55:27 10° NNE 07:00:00 31° E 07:04:32 10° SSE visible
21 Jan 3.1 08:34:35 10° NNE 08:39:43 83° ESE 08:44:50 10° SSW visible
21 Jan 3.1 16:46:12 10° SE 16:51:12 59° NE 16:56:12 10° NNW visible
21 Jan 3.7 18:25:20 10° S 18:30:22 58° WSW 18:35:25 10° NNW visible
21 Jan 5.5 20:06:30 10° SW 20:10:26 22° W 20:14:24 10° NNW visible
22 Jan 5.5 06:18:45 10° NNE 06:22:44 22° E 06:26:41 10° SE visible
22 Jan 3.7 07:57:45 10° NNE 08:02:48 58° ESE 08:07:50 10° S visible
22 Jan 3.1 09:36:57 10° NNE 09:41:58 58° NW 09:46:57 10° SW visible
22 Jan 3.3 16:09:45 10° ESE 16:14:34 44° NE 16:19:24 10° NNW visible
22 Jan 3.1 17:48:19 10° SSE 17:53:26 82° WSW 17:58:35 10° NNW visible
22 Jan 4.9 19:28:39 10° SSW 19:33:10 31° W 19:37:43 10° NNW visible
22 Jan 6.2 21:11:57 10° W 21:13:53 12° WNW 21:15:49 10° NW visible
23 Jan 6.0 05:42:16 10° NE 05:45:19 16° ENE 05:48:21 10° ESE visible
23 Jan 4.4 07:20:56 10° NNE 07:25:45 40° E 07:30:33 10° SSE visible
23 Jan 3.0 09:00:07 10° NNE 09:05:14 79° WNW 09:10:20 10° SW visible
23 Jan 3.0 17:11:33 10° SE 17:16:38 73° ENE 17:21:44 10° NNW visible
23 Jan 4.2 18:51:09 10° S 18:56:01 45° W 19:00:56 10° NNW visible
23 Jan 5.8 20:33:01 10° WSW 20:36:22 17° WNW 20:39:43 10° NNW visible
24 Jan 6.3 05:06:31 10° NE 05:07:45 11° ENE 05:09:00 10° ENE visible
24 Jan 5.1 06:44:10 10° NNE 06:48:35 28° E 06:52:58 10° SSE visible
24 Jan 3.3 08:23:16 10° NNE 08:28:24 75° ESE 08:33:30 10° SSW visible
24 Jan 3.1 16:34:59 10° SE 16:39:56 54° NE 16:44:54 10° NNW visible
24 Jan 3.5 18:13:57 10° S 18:19:00 65° WSW 18:24:06 10° NNW visible
24 Jan 5.3 19:54:51 10° SW 19:58:59 24° W 20:03:09 10° NNW visible
25 Jan 5.7 06:07:31 10° NNE 06:11:16 20° ENE 06:15:00 10° SE visible
25 Jan 3.9 07:46:26 10° NNE 07:51:27 52° ESE 07:56:25 10° S visible
25 Jan 3.0 09:25:39 10° NNE 09:30:42 64° NW 09:35:44 10° SW visible
25 Jan 3.0 17:37:01 10° SSE 17:42:08 90° WNW 17:47:16 10° NNW visible
25 Jan 4.7 19:17:06 10° SSW 19:21:45 35° W 19:26:25 10° NNW visible
25 Jan 6.1 20:59:53 10° W 21:02:21 13° WNW 21:04:50 10° NW visible
26 Jan 6.1 05:31:08 10° NE 05:33:48 14° ENE 05:36:28 10° ESE visible
26 Jan 4.7 07:09:38 10° NNE 07:14:22 36° E 07:19:04 10° SSE visible
26 Jan 3.0 08:48:48 10° NNE 08:53:57 87° WNW 08:59:03 10° SSW visible
26 Jan 3.0 17:00:18 10° SE 17:05:21 66° NE 17:10:25 10° NNW visible
26 Jan 4.0 18:39:42 10° S 18:44:39 50° W 18:49:38 10° NNW visible
26 Jan 5.7 20:21:16 10° WSW 20:24:53 19° WNW 20:28:31 10° NNW visible
27 Jan 5.3 06:32:54 10° NNE 06:37:08 26° E 06:41:22 10° SE visible
27 Jan 3.4 08:11:58 10° NNE 08:17:04 68° ESE 08:22:09 10° SSW visible
27 Jan 3.3 18:02:35 10° SSE 18:07:41 72° WSW 18:12:47 10° NNW visible
27 Jan 5.2 19:43:14 10° SW 19:47:32 27° W 19:51:53 10° NNW visible
27 Jan 6.4 21:27:46 10° WNW 21:28:25 10° WNW 21:29:05 10° NW visible
28 Jan 5.8 05:56:18 10° NNE 05:59:47 18° ENE 06:03:15 10° ESE visible
28 Jan 4.1 07:35:08 10° NNE 07:40:04 47° E 07:44:59 10° S visible
28 Jan 3.0 09:14:21 10° NNE 09:19:25 70° WNW 09:24:29 10° SW visible
28 Jan 3.0 17:25:43 10° SSE 17:30:49 83° ENE 17:35:57 10° NNW visible
28 Jan 4.5 19:05:35 10° SSW 19:10:21 39° W 19:15:08 10° NNW visible
28 Jan 6.1 20:47:58 10° WSW 20:50:50 15° WNW 20:53:43 10° NW visible
29 Jan 6.3 05:20:05 10° NE 05:22:17 13° ENE 05:24:29 10° E visible
29 Jan 4.9 06:58:21 10° NNE 07:02:57 33° E 07:07:32 10° SSE visible
29 Jan 3.1 08:37:29 10° NNE 08:42:38 86° ESE 08:47:44 10° SSW visible
29 Jan 3.0 16:49:04 10° SE 16:54:05 61° NE 16:59:06 10° NNW visible
29 Jan 3.8 18:28:16 10° S 18:33:17 56° WSW 18:38:19 10° NNW visible
29 Jan 5.6 20:09:33 10° SW 20:13:24 21° W 20:17:17 10° NNW visible
